Location: Ethel Rock
(53.4667°N, 4.5667°W)
Time: 01:05:00
(UTC+00:00)

Cosmos 1331 Rocket - Pass Details

Date: 24 October 2020
Orbit: 749 x 778 km, 74.0° (Epoch: 26 November)

Event Time Altitude Azimuth Distance (km) Brightness Sun altitude
Exits shadow 04:59:51 35° 252° (WSW) 1,201 4.5 -18.8°
Drops below altitude 10° 05:04:23 10° 191° (SSW) 2,289 6.3 -18.2°
Sets 05:06:54 0° 183° (S) 3,215 7.2 -17.8°
